Location: Bednik
(45.3500°N, 16.3833°E)
Time: 07:03:46
(UTC+00:00)

SL-4 R/B - Pass Details

Date: 08 August 2020
Orbit: 428 x 665 km, 51.6° (Epoch: 26 September)

Event Time Altitude Azimuth Distance (km) Brightness Sun altitude
Rises 22:22:57 0° 283° (WNW) 2,561 5.7 -28.3°
Reaches altitude 10° 22:25:23 10° 295° (WNW) 1,641 4.8 -28.4°
Enters shadow 22:26:32 17° 307° (NW) 1,254 4.3 -28.4°
